Tracking 28926 objects as of 23-May-2024
HD Live streaming from Space Station
objects crossing your sky now

USA 24

Track USA 24 now!
10-day predictions
USA 24 is classified as:


NORAD ID: 18010
Int'l Code: 1987-043F
Perigee: 367.6 km
Apogee: 1,677.4 km
Inclination: 63.3 °
Period: 105.4 minutes
Semi major axis: 7393 km
RCS: Unknown
Launch date: May 15, 1987
Source: United States (US)
Launch site: AIR FORCE WESTERN TEST RANGE (AFWTR)
Your satellite tracking list
Your tracking list is empty




NASA's NSSDC Master Catalog

Two Line Element Set (TLE):
1 18010U 87043F   24144.58672954  .00017899  00000-0  10602-2 0  9998
2 18010  63.2971 282.8568 0885780  90.3728 279.8724 13.65602633241511
Source of the keplerian elements: McCants